User: anonymous   Login
Location: Albany
(35.0000°S, 118.0000°E)
Time: 07:16:05
(UTC-04:00)
Language:

Cosmos 1758 Rocket - Orbit

View from above orbital plane
View from above orbital plane
View from above satellite
View from above satellite

Ground track
Ground track

The orbit data is extracted from the following two-line orbital elements,

1 16792U 86046B   14295.96543822  .00000874  00000-0  10508-3 0  6105
2 16792 082.4859 033.2310 0023454 237.8195 243.3542 14.82663389531381
Epoch (UTC): 22 October 2014 23:10:13
Eccentricity: 0.0023454
inclination: 82.4859°
perigee height: 604 km
apogee height: 637 km
right ascension of ascending node: 33.2310°
argument of perigee: 237.8195°
revolutions per day: 14.82663389
mean anomaly at epoch: 243.3542°
orbit number at epoch: 53138

The dashed part of the orbit path shows where the satellite is in the earth's shadow,  

DLR